Year,Month,Day,Hour,Minute,Value (Times are PST for temperature in C)
2017,03,20,00,00,-0.40
2017,03,20,00,01,-0.40
2017,03,20,00,02,-0.40
2017,03,20,00,03,-0.40
2017,03,20,00,04,-0.40
2017,03,20,00,05,-0.40
2017,03,20,00,06,-0.40
2017,03,20,00,07,-0.40
2017,03,20,00,08,-0.50
2017,03,20,00,09,-0.50
2017,03,20,00,10,-0.50
2017,03,20,00,11,-0.50
2017,03,20,00,12,-0.50
2017,03,20,00,13,-0.50
2017,03,20,00,14,-0.50
2017,03,20,00,15,-0.50
2017,03,20,00,16,-0.50
2017,03,20,00,17,-0.50
2017,03,20,00,18,-0.50
2017,03,20,00,19,-0.50
2017,03,20,00,20,-0.50
2017,03,20,00,21,-0.50
2017,03,20,00,22,-0.60
2017,03,20,00,23,-0.60
2017,03,20,00,24,-0.60
2017,03,20,00,25,-0.60
2017,03,20,00,26,-0.60
2017,03,20,00,27,-0.50
2017,03,20,00,28,-0.60
2017,03,20,00,29,-0.60
2017,03,20,00,30,-0.60
2017,03,20,00,31,-0.60
2017,03,20,00,32,-0.60
2017,03,20,00,33,-0.60
2017,03,20,00,34,-0.60
2017,03,20,00,35,-0.50
2017,03,20,00,36,-0.50
2017,03,20,00,37,-0.50
2017,03,20,00,38,-0.50
2017,03,20,00,39,-0.50
2017,03,20,00,40,-0.60
2017,03,20,00,41,-0.60
2017,03,20,00,42,-0.60
2017,03,20,00,43,-0.60
2017,03,20,00,44,-0.60
2017,03,20,00,45,-0.70
2017,03,20,00,46,-0.70
2017,03,20,00,47,-0.70
2017,03,20,00,48,-0.80
2017,03,20,00,49,-0.80
2017,03,20,00,50,-0.80
2017,03,20,00,51,-0.80
2017,03,20,00,52,-0.80
2017,03,20,00,53,-0.80
2017,03,20,00,54,-0.80
2017,03,20,00,55,-0.80
2017,03,20,00,56,-0.80
2017,03,20,00,57,-0.80
2017,03,20,00,58,-0.80
2017,03,20,00,59,-0.80
2017,03,20,01,00,-0.80
2017,03,20,01,01,-0.70
2017,03,20,01,02,-0.70
2017,03,20,01,03,-0.70
2017,03,20,01,04,-0.70
2017,03,20,01,05,-0.70
2017,03,20,01,06,-0.70
2017,03,20,01,07,-0.70
2017,03,20,01,08,-0.70
2017,03,20,01,09,-0.70
2017,03,20,01,10,-0.60
2017,03,20,01,11,-0.60
2017,03,20,01,12,-0.70
2017,03,20,01,13,-0.70
2017,03,20,01,14,-0.70
2017,03,20,01,15,-0.70
2017,03,20,01,16,-0.70
2017,03,20,01,17,-0.70
2017,03,20,01,18,-0.80
2017,03,20,01,19,-0.80
2017,03,20,01,20,-0.80
2017,03,20,01,21,-0.80
2017,03,20,01,22,-0.80
2017,03,20,01,23,-0.80
2017,03,20,01,24,-0.80
2017,03,20,01,25,-0.90
2017,03,20,01,26,-0.90
2017,03,20,01,27,-0.90
2017,03,20,01,28,-0.90
2017,03,20,01,29,-0.90
2017,03,20,01,30,-0.90
2017,03,20,01,31,-0.90
2017,03,20,01,32,-1.00
2017,03,20,01,33,-1.00
2017,03,20,01,34,-1.00
2017,03,20,01,35,-1.00
2017,03,20,01,36,-1.00
2017,03,20,01,37,-1.10
2017,03,20,01,38,-1.10
2017,03,20,01,39,-1.10
2017,03,20,01,40,-1.10
2017,03,20,01,41,-1.10
2017,03,20,01,42,-1.10
2017,03,20,01,43,-1.10
2017,03,20,01,44,-1.10
2017,03,20,01,45,-1.10
2017,03,20,01,46,-1.10
2017,03,20,01,47,-1.10
2017,03,20,01,48,-1.10
2017,03,20,01,49,-1.10
2017,03,20,01,50,-1.10
2017,03,20,01,51,-1.10
2017,03,20,01,52,-1.10
2017,03,20,01,53,-1.10
2017,03,20,01,54,-1.10
2017,03,20,01,55,-1.10
2017,03,20,01,56,-1.10
2017,03,20,01,57,-1.10
2017,03,20,01,58,-1.10
2017,03,20,01,59,-1.10
2017,03,20,02,00,-1.20
2017,03,20,02,01,-1.20
2017,03,20,02,02,-1.20
2017,03,20,02,03,-1.20
2017,03,20,02,04,-1.20
2017,03,20,02,05,-1.30
2017,03,20,02,06,-1.30
2017,03,20,02,07,-1.30
2017,03,20,02,08,-1.30
2017,03,20,02,09,-1.20
2017,03,20,02,10,-1.20
2017,03,20,02,11,-1.20
2017,03,20,02,12,-1.10
2017,03,20,02,13,-1.10
2017,03,20,02,14,-1.10
2017,03,20,02,15,-1.10
2017,03,20,02,16,-1.10
2017,03,20,02,17,-1.10
2017,03,20,02,18,-1.10
2017,03,20,02,19,-1.10
2017,03,20,02,20,-1.10
2017,03,20,02,21,-1.10
2017,03,20,02,22,-1.10
2017,03,20,02,23,-1.20
2017,03,20,02,24,-1.20
2017,03,20,02,25,-1.20
2017,03,20,02,26,-1.20
2017,03,20,02,27,-1.30
2017,03,20,02,28,-1.30
2017,03,20,02,29,-1.30
2017,03,20,02,30,-1.30
2017,03,20,02,31,-1.30
2017,03,20,02,32,-1.30
2017,03,20,02,33,-1.30
2017,03,20,02,34,-1.40
2017,03,20,02,35,-1.30
2017,03,20,02,36,-1.30
2017,03,20,02,37,-1.30
2017,03,20,02,38,-1.30
2017,03,20,02,39,-1.30
2017,03,20,02,40,-1.30
2017,03,20,02,41,-1.30
2017,03,20,02,42,-1.30
2017,03,20,02,43,-1.30
2017,03,20,02,44,-1.30
2017,03,20,02,45,-1.30
2017,03,20,02,46,-1.30
2017,03,20,02,47,-1.30
2017,03,20,02,48,-1.30
2017,03,20,02,49,-1.30
2017,03,20,02,50,-1.20
2017,03,20,02,51,-1.20
2017,03,20,02,52,-1.10
2017,03,20,02,53,-1.10
2017,03,20,02,54,-1.10
2017,03,20,02,55,-1.10
2017,03,20,02,56,-1.00
2017,03,20,02,57,-1.00
2017,03,20,02,58,-1.00
2017,03,20,02,59,-1.00
2017,03,20,03,00,-1.00
2017,03,20,03,01,-1.00
2017,03,20,03,02,-1.00
2017,03,20,03,03,-1.10
2017,03,20,03,04,-1.10
2017,03,20,03,05,-1.10
2017,03,20,03,06,-1.10
2017,03,20,03,07,-1.20
2017,03,20,03,08,-1.20
2017,03,20,03,09,-1.20
2017,03,20,03,10,-1.20
2017,03,20,03,11,-1.20
2017,03,20,03,12,-1.20
2017,03,20,03,13,-1.30
2017,03,20,03,14,-1.30
2017,03,20,03,15,-1.30
2017,03,20,03,16,-1.30
2017,03,20,03,17,-1.30
2017,03,20,03,18,-1.30
2017,03,20,03,19,-1.40
2017,03,20,03,20,-1.40
2017,03,20,03,21,-1.40
2017,03,20,03,22,-1.40
2017,03,20,03,23,-1.40
2017,03,20,03,24,-1.50
2017,03,20,03,25,-1.40
2017,03,20,03,26,-1.50
2017,03,20,03,27,-1.50
2017,03,20,03,28,-1.50
2017,03,20,03,29,-1.50
2017,03,20,03,30,-1.50
2017,03,20,03,31,-1.50
2017,03,20,03,32,-1.40
2017,03,20,03,33,-1.40
2017,03,20,03,34,-1.40
2017,03,20,03,35,-1.40
2017,03,20,03,36,-1.40
2017,03,20,03,37,-1.40
2017,03,20,03,38,-1.40
2017,03,20,03,39,-1.40
2017,03,20,03,40,-1.40
2017,03,20,03,41,-1.30
2017,03,20,03,42,-1.30
2017,03,20,03,43,-1.30
2017,03,20,03,44,-1.20
2017,03,20,03,45,-1.20
2017,03,20,03,46,-1.20
2017,03,20,03,47,-1.10
2017,03,20,03,48,-1.10
2017,03,20,03,49,-1.10
2017,03,20,03,50,-1.10
2017,03,20,03,51,-1.10
2017,03,20,03,52,-1.00
2017,03,20,03,53,-1.00
2017,03,20,03,54,-1.00
2017,03,20,03,55,-1.00
2017,03,20,03,56,-1.00
2017,03,20,03,57,-1.00
2017,03,20,03,58,-1.00
2017,03,20,03,59,-1.10
2017,03,20,04,00,-1.10
2017,03,20,04,01,-1.10
2017,03,20,04,02,-1.20
2017,03,20,04,03,-1.20
2017,03,20,04,04,-1.20
2017,03,20,04,05,-1.20
2017,03,20,04,06,-1.30
2017,03,20,04,07,-1.30
2017,03,20,04,08,-1.30
2017,03,20,04,09,-1.30
2017,03,20,04,10,-1.30
2017,03,20,04,11,-1.30
2017,03,20,04,12,-1.30
2017,03,20,04,13,-1.30
2017,03,20,04,14,-1.30
2017,03,20,04,15,-1.30
2017,03,20,04,16,-1.30
2017,03,20,04,17,-1.40
2017,03,20,04,18,-1.40
2017,03,20,04,19,-1.40
2017,03,20,04,20,-1.40
2017,03,20,04,21,-1.40
2017,03,20,04,22,-1.30
2017,03,20,04,23,-1.30
2017,03,20,04,24,-1.30
2017,03,20,04,25,-1.30
2017,03,20,04,26,-1.30
2017,03,20,04,27,-1.30
2017,03,20,04,28,-1.30
2017,03,20,04,29,-1.40
2017,03,20,04,30,-1.40
2017,03,20,04,31,-1.40
2017,03,20,04,32,-1.40
2017,03,20,04,33,-1.40
2017,03,20,04,34,-1.50
2017,03,20,04,35,-1.50
2017,03,20,04,36,-1.50
2017,03,20,04,37,-1.50
2017,03,20,04,38,-1.50
2017,03,20,04,39,-1.50
2017,03,20,04,40,-1.40
2017,03,20,04,41,-1.40
2017,03,20,04,42,-1.30
2017,03,20,04,43,-1.30
2017,03,20,04,44,-1.30
2017,03,20,04,45,-1.30
2017,03,20,04,46,-1.30
2017,03,20,04,47,-1.30
2017,03,20,04,48,-1.20
2017,03,20,04,49,-1.30
2017,03,20,04,50,-1.20
2017,03,20,04,51,-1.20
2017,03,20,04,52,-1.20
2017,03,20,04,53,-1.20
2017,03,20,04,54,-1.20
2017,03,20,04,55,-1.30
2017,03,20,04,56,-1.30
2017,03,20,04,57,-1.30
2017,03,20,04,58,-1.30
2017,03,20,04,59,-1.30
2017,03,20,05,00,-1.30
2017,03,20,05,01,-1.30
2017,03,20,05,02,-1.30
2017,03,20,05,03,-1.30
2017,03,20,05,04,-1.30
2017,03,20,05,05,-1.30
2017,03,20,05,06,-1.30
2017,03,20,05,07,-1.30
2017,03,20,05,08,-1.30
2017,03,20,05,09,-1.30
2017,03,20,05,10,-1.30
2017,03,20,05,11,-1.30
2017,03,20,05,12,-1.30
2017,03,20,05,13,-1.30
2017,03,20,05,14,-1.30
2017,03,20,05,15,-1.30
2017,03,20,05,16,-1.30
2017,03,20,05,17,-1.30
2017,03,20,05,18,-1.30
2017,03,20,05,19,-1.30
2017,03,20,05,20,-1.30
2017,03,20,05,21,-1.30
2017,03,20,05,22,-1.30
2017,03,20,05,23,-1.30
2017,03,20,05,24,-1.30
2017,03,20,05,25,-1.30
2017,03,20,05,26,-1.30
2017,03,20,05,27,-1.30
2017,03,20,05,28,-1.30
2017,03,20,05,29,-1.30
2017,03,20,05,30,-1.30
2017,03,20,05,31,-1.30
2017,03,20,05,32,-1.30
2017,03,20,05,33,-1.30
2017,03,20,05,34,-1.30
2017,03,20,05,35,-1.30
2017,03,20,05,36,-1.30
2017,03,20,05,37,-1.30
2017,03,20,05,38,-1.20
2017,03,20,05,39,-1.20
2017,03,20,05,40,-1.20
2017,03,20,05,41,-1.20
2017,03,20,05,42,-1.20
2017,03,20,05,43,-1.20
2017,03,20,05,44,-1.20
2017,03,20,05,45,-1.10
2017,03,20,05,46,-1.20
2017,03,20,05,47,-1.10
2017,03,20,05,48,-1.10
2017,03,20,05,49,-1.20
2017,03,20,05,50,-1.20
2017,03,20,05,51,-1.20
2017,03,20,05,52,-1.20
2017,03,20,05,53,-1.20
2017,03,20,05,54,-1.20
2017,03,20,05,55,-1.20
2017,03,20,05,56,-1.20
2017,03,20,05,57,-1.20
2017,03,20,05,58,-1.20
2017,03,20,05,59,-1.20
2017,03,20,06,00,-1.20
2017,03,20,06,01,-1.10
2017,03,20,06,02,-1.10
2017,03,20,06,03,-1.10
2017,03,20,06,04,-1.10
2017,03,20,06,05,-1.10
2017,03,20,06,06,-1.10
2017,03,20,06,07,-1.10
2017,03,20,06,08,-1.00
2017,03,20,06,09,-1.00
2017,03,20,06,10,-1.00
2017,03,20,06,11,-1.00
2017,03,20,06,12,-1.00
2017,03,20,06,13,-1.00
2017,03,20,06,14,-1.00
2017,03,20,06,15,-1.00
2017,03,20,06,16,-1.00
2017,03,20,06,17,-1.00
2017,03,20,06,18,-1.00
2017,03,20,06,19,-1.00
2017,03,20,06,20,-1.00
2017,03,20,06,21,-0.90
2017,03,20,06,22,-0.90
2017,03,20,06,23,-0.90
2017,03,20,06,24,-0.90
2017,03,20,06,25,-0.90
2017,03,20,06,26,-0.90
2017,03,20,06,27,-0.90
2017,03,20,06,28,-0.90
2017,03,20,06,29,-0.90
2017,03,20,06,30,-0.90
2017,03,20,06,31,-0.90
2017,03,20,06,32,-1.00
2017,03,20,06,33,-1.00
2017,03,20,06,34,-1.00
2017,03,20,06,35,-1.00
2017,03,20,06,36,-1.00
2017,03,20,06,37,-1.00
2017,03,20,06,38,-1.00
2017,03,20,06,39,-1.00
2017,03,20,06,40,-1.00
2017,03,20,06,41,-1.00
2017,03,20,06,42,-1.00
2017,03,20,06,43,-1.00
2017,03,20,06,44,-1.00
2017,03,20,06,45,-1.00
2017,03,20,06,46,-1.00
2017,03,20,06,47,-1.00
2017,03,20,06,48,-1.00
2017,03,20,06,49,-0.90
2017,03,20,06,50,-0.90
2017,03,20,06,51,-0.90
2017,03,20,06,52,-0.90
2017,03,20,06,53,-0.90
2017,03,20,06,54,-0.90
2017,03,20,06,55,-0.90
2017,03,20,06,56,-0.90
2017,03,20,06,57,-0.90
2017,03,20,06,58,-0.90
2017,03,20,06,59,-0.90
2017,03,20,07,00,-0.90
2017,03,20,07,01,-0.90
2017,03,20,07,02,-0.90
2017,03,20,07,03,-0.90
2017,03,20,07,04,-0.90
2017,03,20,07,05,-1.00
2017,03,20,07,06,-1.00
2017,03,20,07,07,-1.00
2017,03,20,07,08,-1.00
2017,03,20,07,09,-1.00
2017,03,20,07,10,-1.00
2017,03,20,07,11,-1.10
2017,03,20,07,12,-1.10
2017,03,20,07,13,-1.10
2017,03,20,07,14,-1.10
2017,03,20,07,15,-1.10
2017,03,20,07,16,-1.10
2017,03,20,07,17,-1.10
2017,03,20,07,18,-1.10
2017,03,20,07,19,-1.10
2017,03,20,07,20,-1.00
2017,03,20,07,21,-1.00
2017,03,20,07,22,-1.00
2017,03,20,07,23,-1.00
2017,03,20,07,24,-1.10
2017,03,20,07,25,-1.00
2017,03,20,07,26,-1.00
2017,03,20,07,27,-1.00
2017,03,20,07,28,-1.00
2017,03,20,07,29,-1.00
2017,03,20,07,30,-1.00
2017,03,20,07,31,-1.00
2017,03,20,07,32,-1.00
2017,03,20,07,33,-1.00
2017,03,20,07,34,-1.00
2017,03,20,07,35,-1.00
2017,03,20,07,36,-0.90
2017,03,20,07,37,-1.00
2017,03,20,07,38,-1.00
2017,03,20,07,39,-1.00
2017,03,20,07,40,-1.00
2017,03,20,07,41,-1.00
2017,03,20,07,42,-0.90
2017,03,20,07,43,-0.90
2017,03,20,07,44,-0.90
2017,03,20,07,45,-0.90
2017,03,20,07,46,-0.90
2017,03,20,07,47,-0.90
2017,03,20,07,48,-0.90
2017,03,20,07,49,-0.90
2017,03,20,07,50,-0.90
2017,03,20,07,51,-0.90
2017,03,20,07,52,-0.90
2017,03,20,07,53,-0.80
2017,03,20,07,54,-0.80
2017,03,20,07,55,-0.80
2017,03,20,07,56,-0.80
2017,03,20,07,57,-0.80
2017,03,20,07,58,-0.80
2017,03,20,07,59,-0.80
2017,03,20,08,00,-0.80
2017,03,20,08,01,-0.80
2017,03,20,08,02,-0.70
2017,03,20,08,03,-0.70
2017,03,20,08,04,-0.70
2017,03,20,08,05,-0.70
2017,03,20,08,06,-0.60
2017,03,20,08,07,-0.60
2017,03,20,08,08,-0.60
2017,03,20,08,09,-0.60
2017,03,20,08,10,-0.50
2017,03,20,08,11,-0.50
2017,03,20,08,12,-0.50
2017,03,20,08,13,-0.50
2017,03,20,08,14,-0.40
2017,03,20,08,15,-0.40
2017,03,20,08,16,-0.40
2017,03,20,08,17,-0.40
2017,03,20,08,18,-0.40
2017,03,20,08,19,-0.30
2017,03,20,08,20,-0.30
2017,03,20,08,21,-0.30
2017,03,20,08,22,-0.30
2017,03,20,08,23,-0.20
2017,03,20,08,24,-0.20
2017,03,20,08,25,-0.20
2017,03,20,08,26,-0.20
2017,03,20,08,27,-0.20
2017,03,20,08,28,-0.20
2017,03,20,08,29,-0.20
2017,03,20,08,30,-0.10
2017,03,20,08,31,-0.10
2017,03,20,08,32,-0.10
2017,03,20,08,33,-0.10
2017,03,20,08,34,-0.10
2017,03,20,08,35,-0.10
2017,03,20,08,36,-0.10
2017,03,20,08,37,-0.10
2017,03,20,08,38,0.00
2017,03,20,08,39,0.00
2017,03,20,08,40,0.00
2017,03,20,08,41,0.00
2017,03,20,08,42,0.10
2017,03,20,08,43,0.10
2017,03,20,08,44,0.10
2017,03,20,08,45,0.10
2017,03,20,08,46,0.10
2017,03,20,08,47,0.20
2017,03,20,08,48,0.20
2017,03,20,08,49,0.20
2017,03,20,08,50,0.20
2017,03,20,08,51,0.20
2017,03,20,08,52,0.20
2017,03,20,08,53,0.30
2017,03,20,08,54,0.30
2017,03,20,08,55,0.30
2017,03,20,08,56,0.30
2017,03,20,08,57,0.30
2017,03,20,08,58,0.30
2017,03,20,08,59,0.40
2017,03,20,09,00,0.40
2017,03,20,09,01,0.40
2017,03,20,09,02,0.40
2017,03,20,09,03,0.50
2017,03,20,09,04,0.50
2017,03,20,09,05,0.50
2017,03,20,09,06,0.50
2017,03,20,09,07,0.50
2017,03,20,09,08,0.60
2017,03,20,09,09,0.60
2017,03,20,09,10,0.60
2017,03,20,09,11,0.60
2017,03,20,09,12,0.60
2017,03,20,09,13,0.60
2017,03,20,09,14,0.60
2017,03,20,09,15,0.60
2017,03,20,09,16,0.60
2017,03,20,09,17,0.70
2017,03,20,09,18,0.70
2017,03,20,09,19,0.70
2017,03,20,09,20,0.80
2017,03,20,09,21,0.80
2017,03,20,09,22,0.80
2017,03,20,09,23,0.90
2017,03,20,09,24,0.90
2017,03,20,09,25,0.90
2017,03,20,09,26,1.00
2017,03,20,09,27,1.10
2017,03,20,09,28,1.10
2017,03,20,09,29,1.10
2017,03,20,09,30,1.20
2017,03,20,09,31,1.20
2017,03,20,09,32,1.30
2017,03,20,09,33,1.30
2017,03,20,09,34,1.30
2017,03,20,09,35,1.30
2017,03,20,09,36,1.30
2017,03,20,09,37,1.30
2017,03,20,09,38,1.30
2017,03,20,09,39,1.40
2017,03,20,09,40,1.40
2017,03,20,09,41,1.40
2017,03,20,09,42,1.40
2017,03,20,09,43,1.50
2017,03,20,09,44,1.60
2017,03,20,09,45,1.60
2017,03,20,09,46,1.60
2017,03,20,09,47,1.70
2017,03,20,09,48,1.70
2017,03,20,09,49,1.80
2017,03,20,09,50,1.80
2017,03,20,09,51,1.80
2017,03,20,09,52,1.80
2017,03,20,09,53,1.80
2017,03,20,09,54,1.80
2017,03,20,09,55,1.90
2017,03,20,09,56,1.90
2017,03,20,09,57,1.90
2017,03,20,09,58,1.90
2017,03,20,09,59,2.00
2017,03,20,10,00,2.00
2017,03,20,10,01,2.10
2017,03,20,10,02,2.10
2017,03,20,10,03,2.10
2017,03,20,10,04,2.10
2017,03,20,10,05,2.10
2017,03,20,10,06,2.20
2017,03,20,10,07,2.20
2017,03,20,10,08,2.20
2017,03,20,10,09,2.20
2017,03,20,10,10,2.20
2017,03,20,10,11,2.30
2017,03,20,10,12,2.30
2017,03,20,10,13,2.30
2017,03,20,10,14,2.30
2017,03,20,10,15,2.30
2017,03,20,10,16,2.30
2017,03,20,10,17,2.30
2017,03,20,10,18,2.40
2017,03,20,10,19,2.40
2017,03,20,10,20,2.40
2017,03,20,10,21,2.50
2017,03,20,10,22,2.60
2017,03,20,10,23,2.60
2017,03,20,10,24,2.60
2017,03,20,10,25,2.70
2017,03,20,10,26,2.70
2017,03,20,10,27,2.80
2017,03,20,10,28,2.80
2017,03,20,10,29,2.80
2017,03,20,10,30,2.80
2017,03,20,10,31,2.80
2017,03,20,10,32,2.80
2017,03,20,10,33,2.80
2017,03,20,10,34,2.80
2017,03,20,10,35,2.80
2017,03,20,10,36,2.80
2017,03,20,10,37,2.80
2017,03,20,10,38,2.90
2017,03,20,10,39,2.90
2017,03,20,10,40,2.90
2017,03,20,10,41,3.00
2017,03,20,10,42,3.00
2017,03,20,10,43,3.10
2017,03,20,10,44,3.20
2017,03,20,10,45,3.20
2017,03,20,10,46,3.20
2017,03,20,10,47,3.20
2017,03,20,10,48,3.30
2017,03,20,10,49,3.40
2017,03,20,10,50,3.50
2017,03,20,10,51,3.60
2017,03,20,10,52,3.70
2017,03,20,10,53,3.70
2017,03,20,10,54,3.80
2017,03,20,10,55,3.90
2017,03,20,10,56,4.00
2017,03,20,10,57,4.10
2017,03,20,10,58,4.10
2017,03,20,10,59,4.20
2017,03,20,11,00,4.20
2017,03,20,11,01,4.30
2017,03,20,11,02,4.30
2017,03,20,11,03,4.30
2017,03,20,11,04,4.40
2017,03,20,11,05,4.40
2017,03,20,11,06,4.40
2017,03,20,11,07,4.50
2017,03,20,11,08,4.50
2017,03,20,11,09,4.60
2017,03,20,11,10,4.60
2017,03,20,11,11,4.60
2017,03,20,11,12,4.60
2017,03,20,11,13,4.70
2017,03,20,11,14,4.70
2017,03,20,11,15,4.70
2017,03,20,11,16,4.70
2017,03,20,11,17,4.70
2017,03,20,11,18,4.70
2017,03,20,11,19,4.80
2017,03,20,11,20,4.80
2017,03,20,11,21,4.90
2017,03,20,11,22,4.90
2017,03,20,11,23,5.00
2017,03,20,11,24,5.00
2017,03,20,11,25,5.10
2017,03,20,11,26,5.20
2017,03,20,11,27,5.20
2017,03,20,11,28,5.30
2017,03,20,11,29,5.30
2017,03,20,11,30,5.40
2017,03,20,11,31,5.50
2017,03,20,11,32,5.50
2017,03,20,11,33,5.60
2017,03,20,11,34,5.60
2017,03,20,11,35,5.70
2017,03,20,11,36,5.80
2017,03,20,11,37,5.90
2017,03,20,11,38,5.90
2017,03,20,11,39,6.00
2017,03,20,11,40,6.10
2017,03,20,11,41,6.20
2017,03,20,11,42,6.30
2017,03,20,11,43,6.30
2017,03,20,11,44,6.40
2017,03,20,11,45,6.40
2017,03,20,11,46,6.40
2017,03,20,11,47,6.40
2017,03,20,11,48,6.40
2017,03,20,11,49,6.40
2017,03,20,11,50,6.50
2017,03,20,11,51,6.50
2017,03,20,11,52,6.60
2017,03,20,11,53,6.60
2017,03,20,11,54,6.70
2017,03,20,11,55,6.70
2017,03,20,11,56,6.80
2017,03,20,11,57,6.90
2017,03,20,11,58,6.90
2017,03,20,11,59,7.00
2017,03,20,12,00,7.10
2017,03,20,12,01,7.20
2017,03,20,12,02,7.20
2017,03,20,12,03,7.20
2017,03,20,12,04,7.20
2017,03,20,12,05,7.20
2017,03,20,12,06,7.20
2017,03,20,12,07,7.20
2017,03,20,12,08,7.30
2017,03,20,12,09,7.30
2017,03,20,12,10,7.40
2017,03,20,12,11,7.40
2017,03,20,12,12,7.50
2017,03,20,12,13,7.60
2017,03,20,12,14,7.70
2017,03,20,12,15,7.70
2017,03,20,12,16,7.70
2017,03,20,12,17,7.70
2017,03,20,12,18,7.70
2017,03,20,12,19,7.70
2017,03,20,12,20,7.70
2017,03,20,12,21,7.70
2017,03,20,12,22,7.80
2017,03,20,12,23,7.80
2017,03,20,12,24,7.80
2017,03,20,12,25,7.90
2017,03,20,12,26,7.90
2017,03,20,12,27,7.90
2017,03,20,12,28,7.90
2017,03,20,12,29,7.90
2017,03,20,12,30,7.90
2017,03,20,12,31,7.90
2017,03,20,12,32,7.90
2017,03,20,12,33,7.90
2017,03,20,12,34,7.90
2017,03,20,12,35,7.90
2017,03,20,12,36,7.90
2017,03,20,12,37,7.90
2017,03,20,12,38,8.00
2017,03,20,12,39,7.90
2017,03,20,12,40,7.90
2017,03,20,12,41,7.90
2017,03,20,12,42,7.90
2017,03,20,12,43,8.00
2017,03,20,12,44,8.10
2017,03,20,12,45,8.20
2017,03,20,12,46,8.30
2017,03,20,12,47,8.30
2017,03,20,12,48,8.20
2017,03,20,12,49,8.20
2017,03,20,12,50,8.10
2017,03,20,12,51,8.10
2017,03,20,12,52,8.10
2017,03,20,12,53,8.10
2017,03,20,12,54,8.10
2017,03,20,12,55,8.10
2017,03,20,12,56,8.10
2017,03,20,12,57,8.10
2017,03,20,12,58,8.10
2017,03,20,12,59,8.10
2017,03,20,13,00,8.20
2017,03,20,13,01,8.30
2017,03,20,13,02,8.30
2017,03,20,13,03,8.40
2017,03,20,13,04,8.50
2017,03,20,13,05,8.50
2017,03,20,13,06,8.60
2017,03,20,13,07,8.60
2017,03,20,13,08,8.60
2017,03,20,13,09,8.60
2017,03,20,13,10,8.60
2017,03,20,13,11,8.60
2017,03,20,13,12,8.60
2017,03,20,13,13,8.70
2017,03,20,13,14,8.70
2017,03,20,13,15,8.80
2017,03,20,13,16,8.90
2017,03,20,13,17,9.00
2017,03,20,13,18,9.10
2017,03,20,13,19,9.10
2017,03,20,13,20,9.20
2017,03,20,13,21,9.20
2017,03,20,13,22,9.30
2017,03,20,13,23,9.40
2017,03,20,13,24,9.50
2017,03,20,13,25,9.60
2017,03,20,13,26,9.60
2017,03,20,13,27,9.70
2017,03,20,13,28,9.70
2017,03,20,13,29,9.70
2017,03,20,13,30,9.70
2017,03,20,13,31,9.70
2017,03,20,13,32,9.70
2017,03,20,13,33,9.80
2017,03,20,13,34,9.80
2017,03,20,13,35,9.90
2017,03,20,13,36,9.90
2017,03,20,13,37,10.00
2017,03,20,13,38,10.10
2017,03,20,13,39,10.20
2017,03,20,13,40,10.30
2017,03,20,13,41,10.30
2017,03,20,13,42,10.30
2017,03,20,13,43,10.30
2017,03,20,13,44,10.40
2017,03,20,13,45,10.40
2017,03,20,13,46,10.50
2017,03,20,13,47,10.60
2017,03,20,13,48,10.60
2017,03,20,13,49,10.60
2017,03,20,13,50,10.70
2017,03,20,13,51,10.70
2017,03,20,13,52,10.70
2017,03,20,13,53,10.70
2017,03,20,13,54,10.70
2017,03,20,13,55,10.70
2017,03,20,13,56,10.70
2017,03,20,13,57,10.60
2017,03,20,13,58,10.50
2017,03,20,13,59,10.40
2017,03,20,14,00,10.20
2017,03,20,14,01,10.20
2017,03,20,14,02,10.10
2017,03,20,14,03,10.00
2017,03,20,14,04,10.00
2017,03,20,14,05,9.90
2017,03,20,14,06,9.90
2017,03,20,14,07,9.90
2017,03,20,14,08,9.90
2017,03,20,14,09,10.00
2017,03,20,14,10,10.10
2017,03,20,14,11,10.10
2017,03,20,14,12,10.20
2017,03,20,14,13,10.20
2017,03,20,14,14,10.20
2017,03,20,14,15,10.10
2017,03,20,14,16,10.10
2017,03,20,14,17,10.10
2017,03,20,14,18,10.10
2017,03,20,14,19,10.10
2017,03,20,14,20,10.10
2017,03,20,14,21,10.20
2017,03,20,14,22,10.30
2017,03,20,14,23,10.30
2017,03,20,14,24,10.40
2017,03,20,14,25,10.40
2017,03,20,14,26,10.40
2017,03,20,14,27,10.50
2017,03,20,14,28,10.50
2017,03,20,14,29,10.50
2017,03,20,14,30,10.60
2017,03,20,14,31,10.60
2017,03,20,14,32,10.70
2017,03,20,14,33,10.70
2017,03,20,14,34,10.70
2017,03,20,14,35,10.70
2017,03,20,14,36,10.70
2017,03,20,14,37,10.70
2017,03,20,14,38,10.70
2017,03,20,14,39,10.60
2017,03,20,14,40,10.50
2017,03,20,14,41,10.40
2017,03,20,14,42,10.30
2017,03,20,14,43,10.20
2017,03,20,14,44,10.10
2017,03,20,14,45,10.00
2017,03,20,14,46,10.00
2017,03,20,14,47,10.00
2017,03,20,14,48,10.00
2017,03,20,14,49,10.00
2017,03,20,14,50,10.00
2017,03,20,14,51,10.00
2017,03,20,14,52,10.10
2017,03,20,14,53,10.10
2017,03,20,14,54,10.10
2017,03,20,14,55,10.10
2017,03,20,14,56,10.10
2017,03,20,14,57,10.10
2017,03,20,14,58,10.10
2017,03,20,14,59,10.00
2017,03,20,15,00,10.00
2017,03,20,15,01,10.00
2017,03,20,15,02,10.00
2017,03,20,15,03,10.00
2017,03,20,15,04,10.10
2017,03,20,15,05,10.10
2017,03,20,15,06,10.20
2017,03,20,15,07,10.20
2017,03,20,15,08,10.20
2017,03,20,15,09,10.30
2017,03,20,15,10,10.30
2017,03,20,15,11,10.30
2017,03,20,15,12,10.30
2017,03,20,15,13,10.30
2017,03,20,15,14,10.30
2017,03,20,15,15,10.30
2017,03,20,15,16,10.30
2017,03,20,15,17,10.20
2017,03,20,15,18,10.20
2017,03,20,15,19,10.10
2017,03,20,15,20,10.10
2017,03,20,15,21,10.00
2017,03,20,15,22,10.00
2017,03,20,15,23,10.00
2017,03,20,15,24,10.00
2017,03,20,15,25,10.00
2017,03,20,15,26,10.10
2017,03,20,15,27,10.10
2017,03,20,15,28,10.20
2017,03,20,15,29,10.20
2017,03,20,15,30,10.20
2017,03,20,15,31,10.20
2017,03,20,15,32,10.20
2017,03,20,15,33,10.20
2017,03,20,15,34,10.20
2017,03,20,15,35,10.10
2017,03,20,15,36,10.10
2017,03,20,15,37,10.10
2017,03,20,15,38,10.10
2017,03,20,15,39,10.10
2017,03,20,15,40,10.10
2017,03,20,15,41,10.00
2017,03,20,15,42,9.90
2017,03,20,15,43,9.90
2017,03,20,15,44,9.80
2017,03,20,15,45,9.80
2017,03,20,15,46,9.80
2017,03,20,15,47,9.80
2017,03,20,15,48,9.70
2017,03,20,15,49,9.70
2017,03,20,15,50,9.70
2017,03,20,15,51,9.70
2017,03,20,15,52,9.70
2017,03,20,15,53,9.80
2017,03,20,15,54,9.80
2017,03,20,15,55,9.80
2017,03,20,15,56,9.80
2017,03,20,15,57,9.80
2017,03,20,15,58,9.80
2017,03,20,15,59,9.90
2017,03,20,16,00,9.90
2017,03,20,16,01,9.90
2017,03,20,16,02,10.00
2017,03,20,16,03,10.00
2017,03,20,16,04,10.00
2017,03,20,16,05,9.90
2017,03,20,16,06,9.90
2017,03,20,16,07,9.90
2017,03,20,16,08,9.90
2017,03,20,16,09,9.90
2017,03,20,16,10,9.90
2017,03,20,16,11,9.90
2017,03,20,16,12,9.80
2017,03,20,16,13,9.80
2017,03,20,16,14,9.80
2017,03,20,16,15,9.80
2017,03,20,16,16,9.80
2017,03,20,16,17,9.70
2017,03,20,16,18,9.70
2017,03,20,16,19,9.70
2017,03,20,16,20,9.70
2017,03,20,16,21,9.70
2017,03,20,16,22,9.70
2017,03,20,16,23,9.70
2017,03,20,16,24,9.80
2017,03,20,16,25,9.80
2017,03,20,16,26,9.80
2017,03,20,16,27,9.80
2017,03,20,16,28,9.80
2017,03,20,16,29,9.80
2017,03,20,16,30,9.80
2017,03,20,16,31,9.80
2017,03,20,16,32,9.80
2017,03,20,16,33,9.80
2017,03,20,16,34,9.70
2017,03,20,16,35,9.70
2017,03,20,16,36,9.70
2017,03,20,16,37,9.70
2017,03,20,16,38,9.70
2017,03,20,16,39,9.70
2017,03,20,16,40,9.70
2017,03,20,16,41,9.70
2017,03,20,16,42,9.70
2017,03,20,16,43,9.70
2017,03,20,16,44,9.70
2017,03,20,16,45,9.70
2017,03,20,16,46,9.60
2017,03,20,16,47,9.60
2017,03,20,16,48,9.60
2017,03,20,16,49,9.60
2017,03,20,16,50,9.60
2017,03,20,16,51,9.60
2017,03,20,16,52,9.60
2017,03,20,16,53,9.60
2017,03,20,16,54,9.60
2017,03,20,16,55,9.60
2017,03,20,16,56,9.60
2017,03,20,16,57,9.60
2017,03,20,16,58,9.60
2017,03,20,16,59,9.60
2017,03,20,17,00,9.60
2017,03,20,17,01,9.60
2017,03,20,17,02,9.50
2017,03,20,17,03,9.50
2017,03,20,17,04,9.50
2017,03,20,17,05,9.40
2017,03,20,17,06,9.40
2017,03,20,17,07,9.40
2017,03,20,17,08,9.50
2017,03,20,17,09,9.50
2017,03,20,17,10,9.50
2017,03,20,17,11,9.40
2017,03,20,17,12,9.40
2017,03,20,17,13,9.40
2017,03,20,17,14,9.40
2017,03,20,17,15,9.40
2017,03,20,17,16,9.40
2017,03,20,17,17,9.40
2017,03,20,17,18,9.40
2017,03,20,17,19,9.40
2017,03,20,17,20,9.40
2017,03,20,17,21,9.40
2017,03,20,17,22,9.40
2017,03,20,17,23,9.40
2017,03,20,17,24,9.40
2017,03,20,17,25,9.40
2017,03,20,17,26,9.40
2017,03,20,17,27,9.40
2017,03,20,17,28,9.40
2017,03,20,17,29,9.40
2017,03,20,17,30,9.40
2017,03,20,17,31,9.40
2017,03,20,17,32,9.40
2017,03,20,17,33,9.40
2017,03,20,17,34,9.40
2017,03,20,17,35,9.40
2017,03,20,17,36,9.30
2017,03,20,17,37,9.30